Weather History for 94368 - June, 2013

Change the Weather History Date:

Monday, June 3, 2013

  Actual Average Record
Temperature  
Mean Temperature 68 °F -  
Max Temperature 71 °F - - ()
Min Temperature 66 °F - - ()
Cooling Degree Days 4    
Growing Degree Days 18 (Base 50)    
Moisture  
Dew Point 63 °F    
Average Humidity 81    
Maximum Humidity 100    
Minimum Humidity 55    
Precipitation  
Precipitation 0.00 in - - ()
Sea Level Pressure  
Sea Level Pressure 29.97 in    
Wind  
Wind Speed 14 mph ()    
Max Wind Speed 31 mph    
Max Gust Speed 30 mph    
T = Trace of Precipitation, MM = Missing Value Source: Averaged Metar Reports

Daily Weather History Graph

Daily Weather History Graph

Search for Another Location

Airport or City:

Trip Planner

Search our weather history database for the weather conditions in past years. The results will help you decide how hot, cold, wet, or windy it might be!

Date:

Astronomy

Jun. 03, 2013 Rise Set
Actual Time 6:33 AM AEST 5:31 PM AEST
Civil Twilight 6:09 AM AEST 5:55 PM AEST
Nautical Twilight 5:42 AM AEST 6:22 PM AEST
Astronomical Twilight 5:15 AM AEST 6:49 PM AEST
Moon 1:39 AM AEST (6/3) 1:42 PM AEST (6/3)
Length of Visible Light 11h 45m
Length of Day
10h 57m
Waning Crescent, 27% of the Moon is Illuminated
Jun 3
Waning Crescent
Jun 9
New
Jun 17
First Quarter
Jun 23
Full
Jun 30
Last Quarter

Hourly Weather History & Observations

Time (AEST) Temp. Dew Point Humidity Pressure Visibility Wind Dir Wind Speed Gust Speed Precip Events Conditions
12:00 AM 68 °F - % 29.91 in - NW 6.9 mph - -  
12:00 AM - - N/A% 29.89 in - NW 6.9 mph - N/A   Unknown
12:30 AM 68.0 °F 68.0 °F 100% 29.89 in - NNW 6.9 mph - N/A   Unknown
1:00 AM 68.0 °F 68.0 °F 100% 29.89 in - NW 5.8 mph - N/A   Unknown
1:30 AM - - N/A% 29.89 in - NW 5.8 mph - N/A   Unknown
2:00 AM 68.0 °F 68.0 °F 100% 29.89 in - NW 5.8 mph - N/A   Unknown
2:30 AM 68.0 °F 68.0 °F 100% 29.89 in - NW 5.8 mph - N/A   Unknown
3:00 AM 68.0 °F 68.0 °F 100% 29.86 in - NW 4.6 mph - N/A   Unknown
3:30 AM 68.0 °F 68.0 °F 100% 29.89 in - NW 5.8 mph - N/A   Unknown
4:00 AM 68.0 °F 68.0 °F 100% 29.89 in - NW 5.8 mph - N/A   Unknown
4:30 AM 68.0 °F 68.0 °F 100% 29.89 in - NW 5.8 mph - N/A   Unknown
5:00 AM - - N/A% 29.89 in - NW 6.9 mph - N/A   Unknown
5:30 AM 68.0 °F 68.0 °F 100% 29.89 in - NNW 4.6 mph - N/A   Unknown
6:00 AM 67 °F - % 29.91 in - West 6.9 mph - -  
6:00 AM 68.0 °F 68.0 °F 100% 29.92 in - West 6.9 mph - N/A   Unknown
6:30 AM 68.0 °F 68.0 °F 100% 29.92 in - SW 8.1 mph - N/A   Unknown
7:00 AM 68.0 °F 68.0 °F 100% 29.95 in - South 16.1 mph - N/A   Unknown
7:33 AM 68.0 °F 68.0 °F 100% 29.95 in - SSE 18.4 mph 29.9 mph N/A   Unknown
8:00 AM 68.0 °F 66.2 °F 94% 29.95 in - SE 28.8 mph - N/A   Unknown
8:30 AM 68.0 °F 60.8 °F 78% 29.98 in - SE 31.1 mph - N/A   Unknown
9:00 AM 70 °F 63 °F 72% 29.98 in - SE 29.9 mph - -  
9:00 AM 69.8 °F 62.6 °F 78% 29.98 in - SE 29.9 mph - N/A   Unknown
9:30 AM 69.8 °F 64.4 °F 83% 29.98 in - SSE 23.0 mph - N/A   Unknown
10:00 AM 69.8 °F 60.8 °F 73% 29.98 in - SE 28.8 mph - N/A   Unknown
10:30 AM 69.8 °F 59.0 °F 68% 29.98 in - SE 27.6 mph - N/A   Unknown
11:00 AM 69.8 °F 59.0 °F 68% 29.98 in - SE 28.8 mph - N/A   Unknown
11:30 AM 69.8 °F 60.8 °F 73% 29.98 in - SE 27.6 mph - N/A   Unknown
12:00 PM 70 °F 62 °F 67% 29.99 in - SE 29.9 mph - -  
12:00 PM 69.8 °F 60.8 °F 73% 29.98 in - SE 29.9 mph - N/A   Unknown
12:30 PM 69.8 °F 59.0 °F 68% 29.95 in - SE 27.6 mph - N/A   Unknown
1:00 PM 69.8 °F 59.0 °F 68% 29.95 in - SE 28.8 mph - N/A   Unknown
1:30 PM 71.6 °F 59.0 °F 64% 29.95 in - SE 24.2 mph - N/A   Unknown
2:00 PM 71.6 °F 60.8 °F 69% 29.95 in - SE 21.9 mph - N/A   Unknown
2:30 PM 69.8 °F 60.8 °F 73% 29.95 in - SE 21.9 mph - N/A   Unknown
3:00 PM 70 °F 57 °F 55% 29.96 in - SE 25.3 mph - -  
3:00 PM 69.8 °F 57.2 °F 64% 29.95 in - SE 25.3 mph - N/A   Unknown
3:30 PM 69.8 °F 59.0 °F 68% 29.95 in - ESE 25.3 mph - N/A   Unknown
4:00 PM 69.8 °F 60.8 °F 73% 29.98 in - SE 24.2 mph - N/A   Unknown
4:30 PM 68.0 °F 60.8 °F 78% 29.98 in - ESE 24.2 mph - N/A   Unknown
5:00 PM 68.0 °F 60.8 °F 78% 29.98 in - ESE 24.2 mph - N/A   Unknown
5:30 PM 68.0 °F 60.8 °F 78% 30.01 in - SE 24.2 mph - N/A   Unknown
6:00 PM 68 °F 62 °F 74% 30.01 in - ESE 25.3 mph - -  
6:00 PM 68.0 °F 60.8 °F 78% 30.01 in - ESE 25.3 mph - N/A   Unknown
6:30 PM 68.0 °F 60.8 °F 78% 30.04 in - SE 24.2 mph - N/A   Unknown
7:00 PM 68.0 °F 62.6 °F 83% 30.04 in - ESE 23.0 mph - N/A   Unknown
7:30 PM 68.0 °F 60.8 °F 78% 30.04 in - ESE 21.9 mph - N/A   Unknown
8:00 PM 68.0 °F 60.8 °F 78% 30.04 in - SE 23.0 mph - N/A   Unknown
8:30 PM 68.0 °F 62.6 °F 83% 30.06 in - ESE 21.9 mph - N/A   Unknown
9:00 PM 68 °F 61 °F 73% 30.08 in - SE 23.0 mph - -  
9:00 PM 68.0 °F 60.8 °F 78% 30.06 in - SE 23.0 mph - N/A   Unknown
9:30 PM 68.0 °F 60.8 °F 78% 30.09 in - SE 21.9 mph - N/A   Unknown
10:00 PM 69.8 °F 60.8 °F 73% 30.09 in - SE 25.3 mph - N/A   Unknown
10:30 PM 68.0 °F 60.8 °F 78% 30.09 in - SE 23.0 mph - N/A   Unknown
11:00 PM 69.8 °F 60.8 °F 73% 30.09 in - SE 25.3 mph - N/A   Unknown
11:30 PM 69.8 °F 60.8 °F 73% 30.09 in - SE 25.3 mph - N/A   Unknown